Tracking 22458 objects as of 4-Mar-2021
HD Live streaming from Space Station
objects crossing your sky now

COSMOS 1691 DEB

Track COSMOS 1691 DEB now!
10-day predictions


NORAD ID: 43314
Int'l Code: 1985-094Y
Perigee: 1,340.0 km
Apogee: 1,380.8 km
Inclination: 82.6 °
Period: 112.8 minutes
Semi major axis: 7731 km
RCS: Unknown
Launch date: October 9, 1985
Source: Commonwealth of Independent States (former USSR) (CIS)
Launch site: PLESETSK MISSILE AND SPACE COMPLEX (PKMTR)

Note: This is SATELLITE DEBRIS
aabbcc
Your satellite tracking list
Your tracking list is empty




NASA's NSSDC Master Catalog

Two Line Element Set (TLE):
1 43314U 85094Y   21062.70992356  .00000218  00000-0  94787-3 0  9992
2 43314  82.5576 226.3514 0026367  61.2028 299.1714 12.77065211339118
Source of the keplerian elements: AFSPC